Погода в Ханкенди

Азербайджан     39°49′03″N   46°45′03″E
темп.,
°C
ветер,
м/с
пор.,
м/с
влажн.,
%
обл.,
%
осадки,
мм/ч
давл.,
гПа
погр.,
м
22 апреля, чт
чт2201:00+11з119395 0.0 101820
04:00+11зсз1187100 0.0 101810
07:00+12юв117783 0.0 101813
10:00+17св1162100 0.0 1017449
13:00+20всв33546 0.0 1015934
16:00+15св3380100 1.7 1016521
19:00+14ююв2385100 3.1 1017264
22:00+12юз3492100 7.0 1018140
23 апреля, пт
пт2301:00+12ююз1185100 0.1 101610
04:00+9ссв339545 0.1 101763
07:00+9ссв2398100 0.1 1019247
10:00+10вюв119284 0.1 1020277
13:00+12в228595 0.1 1020498
16:00+12вюв228298 0.1 1020563
19:00+12всв127091 0.1 1022247
22:00+9ю217824 0.1 102311
24 апреля, сб
сб2401:00+9ю018232 0.0 102226
04:00+6ююв00948 0.0 102219
07:00+8юз11886 0.0 102139
10:00+11ссв217768 0.0 1020627
13:00+15св426695 0.0 1017831
16:00+14св317193 0.0 1017590
19:00+12св228288 0.0 101792
22:00+10юз1190100 0.0 101911
25 апреля, вс
вс2501:00+9юз119014 0.0 102010
04:00+9ююз11889 0.0 101913
07:00+10юз12860 0.0 101932
10:00+16всв22634 0.0 1018833
13:00+19всв33564 0.0 10151029
16:00+18всв326217 0.0 1014835
19:00+15всв12783 0.0 1015127
22:00+12юз22865 0.0 101617
26 апреля, пн
пн2601:00+11юз228499 0.0 101522
04:00+11юз22770 0.0 101312
07:00+12юз22662 0.0 101315
10:00+20всв12465 0.0 1011478
13:00+23в24415 0.0 10091144
16:00+22св425175 0.0 1009642
19:00+15ссз1280100 0.4 101179
22:00+13юз3388100 1.3 101331